C/2024 J2 ( Wierzchos )

Japanese version
Home page
Updated on August 11, 2025

---------------------------------------------------------------------

* Profile

Discovery Date May 11, 2024
Magnitude 21.2 mag
Discoverer Kacper W. Wierzchos (Mt. Lemmon Survey)

* Pictures

* Orbital Elements

Epoch 2025 May 5.0 TT = JDT 2460800.5
T 2025 Mar. 19.78625 TT                                 Pike
q   1.8110620            (2000.0)            P               Q
z  +0.0067470      Peri.  143.15469     +0.80781228     +0.56878137
 +/-0.0000020      Node   189.05734     -0.21970722     +0.53406392
e   0.9877808      Incl.   79.29616     +0.54696257     -0.62551058
From 232 observations 2024 Mar. 12-2025 Aug. 5, mean residual 1".2.

* Finding Charts

* Magnitudes Graph

        m1 = 9.5 + 5 log d + 12.5 log r

---------------------------------------------------------------------

The orbital elements are published on M.P.E.C. 2025-P113.
The charts are made with StellaNavigator Ver.11 (AstroArts).
The magnitudes graphs are made with Comet for Windows.

---------------------------------------------------------------------

Copyright(C) Seiichi Yoshida (comet@aerith.net). All rights reserved.